This demonstration page uses our WeatherBlox Daily Observations layout. Learn more.

Left ArrowRight Arrow

Hourly Observations for September 18, 2020

Temp ( °F °C ) Dew Point ( °F °C ) Humidity (%) Winds ( mph kmh ) Pressure ( in mb ) Visibility ( mi km ) Precip ( " mm )
12:54 am 00:54 Clear 52 11.1 46 7.8 80 80 Calm 30.24 1024 10 16.0934 0 0
1:54 am 01:54 Clear 53 11.7 47 8.3 80 80 Calm 30.25 1025 10 16.0934 0 0
2:54 am 02:54 Clear 53 11.7 47 8.3 80 80 NE 6 9 30.26 1025 10 16.0934 0 0
3:54 am 03:54 Clear 54 12.2 48 8.9 80 80 NE 3 6 30.27 1025 10 16.0934 0 0
4:54 am 04:54 Cloudy 53 11.7 47 8.3 80 80 NE 5 7 30.29 1026 10 16.0934 0 0
5:54 am 05:54 Mostly Cloudy 52 11.1 45 7.2 77 77 ENE 7 11 30.3 1026 10 16.0934 0 0
6:54 am 06:54 Mostly Cloudy 50 10 43 6.1 77 77 ENE 7 11 30.32 1027 10 16.0934 0 0
7:54 am 07:54 Sunny 50 10 43 6.1 77 77 ENE 6 9 30.35 1028 9 14.48406 0 0
8:54 am 08:54 Sunny 53 11.7 43 6.1 69 69 ENE 7 11 30.36 1028 9 14.48406 0 0
9:54 am 09:54 Sunny 56 13.3 43 6.1 62 62 ESE 9 15 30.37 1028 9 14.48406 0 0
10:54 am 10:54 Mostly Cloudy 61 16.1 45 7.2 56 56 E 9 15 30.37 1028 9 14.48406 0 0
11:54 am 11:54 Sunny 64 17.8 46 7.8 52 52 E 8 13 30.36 1028 9 14.48406 0 0
12:54 pm 12:54 Sunny 68 20 46 7.8 45 45 undefined N/A 30.34 1027 9 14.48406 0 0
1:54 pm 13:54 Sunny 70 21.1 46 7.8 42 42 VRB 6 9 30.31 1027 10 16.0934 0 0
2:54 pm 14:54 Mostly Sunny 73 22.8 46 7.8 38 38 SE 12 19 30.27 1025 9 14.48406 0 0
3:54 pm 15:54 Partly Cloudy 72 22.2 47 8.3 41 41 ESE 7 11 30.25 1024 9 14.48406 0 0
4:54 pm 16:54 Sunny 72 22.2 47 8.3 41 41 SE 8 13 30.23 1024 9 14.48406 0 0
5:54 pm 17:54 Cloudy 71 21.7 46 7.8 41 41 SE 9 15 30.22 1024 9 14.48406 0 0
6:54 pm 18:54 Cloudy 70 21.1 46 7.8 42 42 SE 8 13 30.22 1023 9 14.48406 0 0
7:54 pm 19:54 Clear 65 18.3 46 7.8 51 51 SE 7 11 30.22 1023 10 16.0934 0 0
8:54 pm 20:54 Clear 65 18.3 47 8.3 52 52 ESE 5 7 30.24 1024 10 16.0934 0 0
9:54 pm 21:54 Clear 62 16.7 47 8.3 58 58 SE 8 13 30.24 1024 10 16.0934 0 0
11:54 pm 23:54 Clear 61 16.1 48 8.9 63 63 SSE 10 17 30.24 1024 10 16.0934 0 0

Powered by AerisWeather